Weather History for Rome, GA

Change the Weather History Date:

Sunday, January 13, 2013

  Actual Average Record
Temperature  
Mean Temperature 65 °F 41 °F  
Max Temperature 71 °F 52 °F 71 °F (2005)
Min Temperature 59 °F 30 °F 19 °F (2011)
Degree Days  
Heating Degree Days 0 24  
Month to date heating degree days 312  
Since 1 July heating degree days 1612  
Growing Degree Days 15 (Base 50)    
Moisture  
Dew Point 61 °F    
Average Humidity 91    
Maximum Humidity 100    
Minimum Humidity 66    
Precipitation  
Precipitation 1.73 in 0.15 in 1.73 in (2013)
Month to date precipitation 1.59  
Year to date precipitation 1.59  
Snow  
Snow 0.00 in - - ()
Month to date snowfall  
Since 1 July snowfall  
Snow Depth -    
Sea Level Pressure  
Sea Level Pressure 30.00 in    
Wind  
Wind Speed 5 mph (SSW)    
Max Wind Speed 13 mph    
Max Gust Speed 20 mph    
Visibility 7 miles    
Events Rain    
T = Trace of Precipitation, MM = Missing Value Source: NWS Daily Summary

Daily Weather History Graph

Daily Weather History Graph

Search for Another Location

Airport:

Trip Planner

Search our weather history database for the weather conditions in past years. The results will help you decide how hot, cold, wet, or windy it might be!

Date:

Astronomy

Jan. 13, 2013 Rise Set
Actual Time 7:47 AM EST 5:52 PM EST
Civil Twilight 7:19 AM EST 6:19 PM EST
Nautical Twilight 6:48 AM EST 6:50 PM EST
Astronomical Twilight 6:18 AM EST 7:20 PM EST
Moon 8:52 AM EST (1/13) 8:21 PM EST (1/13)
Length of Visible Light 10h 59m
Length of Day
10h 05m
Waxing Crescent, 5% of the Moon is Illuminated
Jan 13
Waxing Crescent
Jan 18
First Quarter
Jan 26
Full
Feb 3
Last Quarter
Feb 10
New

Hourly Weather History & Observations

Time (EST) Temp. Dew Point Humidity Pressure Visibility Wind Dir Wind Speed Gust Speed Precip Events Conditions
12:53 AM 61.0 °F 57.9 °F 90% 30.00 in 10.0 mi SSE 6.9 mph - N/A   Scattered Clouds
1:53 AM 61.0 °F 57.9 °F 90% 30.00 in 10.0 mi SSE 8.1 mph - N/A   Partly Cloudy
2:53 AM 62.1 °F 59.0 °F 90% 29.99 in 10.0 mi SSE 4.6 mph - N/A   Overcast
3:53 AM 61.0 °F 59.0 °F 93% 29.99 in 10.0 mi SSE 5.8 mph - N/A   Overcast
4:20 AM 60.8 °F 59.0 °F 94% 29.99 in 10.0 mi SSE 6.9 mph - N/A   Scattered Clouds
4:53 AM 61.0 °F 59.0 °F 93% 29.97 in 10.0 mi Calm Calm - N/A   Partly Cloudy
5:33 AM 59.0 °F 59.0 °F 100% 29.99 in 10.0 mi North 3.5 mph - N/A   Overcast
5:53 AM 60.1 °F 59.0 °F 96% 29.98 in 10.0 mi Calm Calm - N/A   Overcast
6:53 AM 61.0 °F 60.1 °F 97% 30.01 in 10.0 mi Calm Calm - N/A   Overcast
7:32 AM 60.8 °F 60.8 °F 100% 30.05 in 10.0 mi Calm Calm - N/A   Overcast
7:53 AM 60.1 °F 59.0 °F 96% 30.05 in 10.0 mi Calm Calm - N/A   Overcast
8:04 AM 60.8 °F 60.8 °F 100% 30.07 in 10.0 mi Calm Calm - N/A   Overcast
8:53 AM 61.0 °F 60.1 °F 97% 30.05 in 10.0 mi SE 3.5 mph - 0.00 in   Overcast
9:53 AM 64.0 °F 61.0 °F 90% 30.05 in 10.0 mi SE 5.8 mph - N/A   Overcast
10:53 AM 66.0 °F 61.0 °F 84% 30.05 in 10.0 mi Calm Calm - N/A   Overcast
11:53 AM 68.0 °F 62.1 °F 81% 30.01 in 10.0 mi SSE 8.1 mph - N/A   Overcast
12:53 PM 69.1 °F 61.0 °F 75% 29.99 in 10.0 mi South 8.1 mph 18.4 mph N/A   Overcast
1:35 PM 69.8 °F 60.8 °F 73% 30.00 in 10.0 mi South 10.4 mph - N/A   Overcast
1:46 PM 69.8 °F 60.8 °F 73% 30.00 in 10.0 mi SSW 9.2 mph - N/A   Overcast
1:53 PM 70.0 °F 61.0 °F 73% 29.98 in 10.0 mi SSW 9.2 mph - N/A   Overcast
2:51 PM 71.6 °F 60.8 °F 69% 30.00 in 10.0 mi South 9.2 mph - N/A   Overcast
2:53 PM 71.1 °F 60.1 °F 68% 29.98 in 10.0 mi South 8.1 mph 16.1 mph N/A   Overcast
3:53 PM 71.1 °F 60.1 °F 68% 29.97 in 10.0 mi South 10.4 mph - N/A   Overcast
4:53 PM 70.0 °F 60.1 °F 71% 29.96 in 10.0 mi South 10.4 mph - N/A   Clear
5:53 PM 69.1 °F 60.1 °F 73% 29.96 in 10.0 mi SSW 4.6 mph - N/A   Partly Cloudy
6:53 PM 69.1 °F 60.1 °F 73% 29.97 in 10.0 mi South 6.9 mph - N/A   Mostly Cloudy
7:53 PM 66.0 °F 62.1 °F 87% 29.98 in 3.0 mi South 6.9 mph - 0.03 in Rain Rain
8:05 PM 64.4 °F 62.6 °F 94% 30.00 in 2.5 mi SSW 5.8 mph - 0.05 in Rain Heavy Rain
8:09 PM 64.4 °F 64.4 °F 100% 29.99 in 1.8 mi South 5.8 mph - 0.09 in Rain Heavy Rain
8:20 PM 64.4 °F 64.4 °F 100% 29.99 in 3.0 mi South 3.5 mph - 0.18 in Rain Rain
8:32 PM 64.4 °F 64.4 °F 100% 29.99 in 1.8 mi Calm Calm - 0.26 in Rain Heavy Rain
8:49 PM 64.4 °F 64.4 °F 100% 30.00 in 2.5 mi West 4.6 mph - 0.37 in Rain Light Rain
8:53 PM 64.0 °F 64.0 °F 100% 29.98 in 5.0 mi Calm Calm - 0.37 in Rain Light Rain
9:02 PM 64.4 °F 64.4 °F 100% 30.00 in 6.0 mi Calm Calm - 0.01 in Rain Light Rain
9:24 PM 64.4 °F 64.4 °F 100% 29.99 in 5.0 mi SSE 3.5 mph - 0.04 in Rain Rain
9:51 PM 64.4 °F 64.4 °F 100% 30.00 in 2.5 mi NNW 12.7 mph 19.6 mph 0.15 in Rain Heavy Rain
9:52 PM 64.0 °F 64.0 °F 100% 29.99 in 2.5 mi NNW 12.7 mph 19.6 mph 0.16 in Rain Heavy Rain
10:01 PM 62.6 °F 62.6 °F 100% 30.00 in 1.2 mi North 9.2 mph 19.6 mph 0.20 in Rain Heavy Rain
10:13 PM 62.6 °F 62.6 °F 100% 30.01 in 1.2 mi NNW 6.9 mph - 0.48 in Rain Heavy Rain
10:20 PM 62.6 °F 62.6 °F 100% 30.02 in 2.0 mi NW 5.8 mph - 0.54 in Rain Rain
10:23 PM 62.6 °F 62.6 °F 100% 30.02 in 1.8 mi NW 5.8 mph - 0.56 in Rain Heavy Rain
10:40 PM 62.6 °F 62.6 °F 100% 30.02 in 2.5 mi North 3.5 mph - 0.83 in Rain Rain
10:48 PM 62.6 °F 62.6 °F 100% 30.03 in 3.0 mi NW 4.6 mph - 0.86 in Rain Rain
10:53 PM 62.1 °F 62.1 °F 100% 30.02 in 2.0 mi Calm Calm - 0.90 in Rain Heavy Rain
11:02 PM 62.6 °F 62.6 °F 100% 30.04 in 1.8 mi NNW 4.6 mph - 0.09 in Rain Heavy Rain
11:12 PM 62.6 °F 62.6 °F 100% 30.03 in 3.0 mi North 4.6 mph - 0.17 in Rain Rain
11:53 PM 62.1 °F 62.1 °F 100% 30.02 in 10.0 mi South 3.5 mph - 0.24 in Rain Light Rain